Погода в Манзини

Эсватини     26°30′29″S   31°22′13″E
темп.,
°C
ветер,
м/с
пор.,
м/с
влажн.,
%
обл.,
%
осадки,
мм/ч
давл.,
гПа
погр.,
м
5 августа, чт
чт523:00+13з11560 0.0 102511
02:00+12з22560 0.0 102416
05:00+11з32510 0.0 102321
08:00+15з22380 0.0 1024120
11:00+24юв22200 0.0 10221016
14:00+26в44160 0.0 10182190
17:00+22всв47240 0.0 1018195
20:00+16ссз22390 0.0 102114
6 августа, пт
пт623:00+14з11450 0.0 102211
02:00+13з22490 0.0 102113
05:00+12з32530 0.0 102120
08:00+16з23340 0.0 1022118
11:00+27юв13150 0.0 10191075
14:00+30в25120 0.0 10152770
17:00+25св23200 0.0 101557
20:00+19зсз22270 0.0 101916
7 августа, сб
сб723:00+16юз11320 0.0 102111
02:00+13юз11470 0.0 102211
05:00+12з11501 0.0 102311
08:00+15юз11400 0.0 1024138
11:00+21вюв22340 0.0 1023790
14:00+24в54324 0.0 10191161
17:00+22в46420 0.0 1020337
20:00+15в22650 0.0 102416
8 августа, вс
вс823:00+13ссз11919 0.0 102511
02:00+12з11870 0.0 102311
05:00+11з11850 0.0 102311
08:00+15з12560 0.0 1024146
11:00+24в23250 0.0 1021822
14:00+28всв43190 0.0 10161104
17:00+25св35284 0.0 1016113
20:00+18зсз22445 0.0 101816
9 августа, пн
пн923:00+16з32390 0.0 101919
02:00+15з32360 0.0 101819
05:00+15з33300 0.0 101724
08:00+20з35260 0.0 1018146
11:00+32зюз46100 0.0 10161835
14:00+33ююв3490 0.0 10143488
17:00+21вюв79410 0.0 10211051
20:00+14юв5872100 0.1 1028908